[[{"header":{"parameterUnit":"m.s-1","parameterCategory":1,"la1":30.2991,"la2":30.254,"lo1":-89.0895,"lo2":-89.0444,"dy":0.0017,"dx":0.0017,"nx":28,"ny":28,"refTime":"2023-11-15T09:00:00:Z","depth":0,"parameterNumber":2,"parameterNumberName":"U-component_of_WINDS"},"data":[0,0,0,0,0,0,0,0,0,0,0,0,0,0,0,0,0,0,0,0,0,0,0,0,0,0,0,0,0,0,0,0,0,0,0,0,0,0,0,0,0,0,0,0,0,0,0,0,0,0,0,0,0,0,0,0,0,0,-4.0983,-4.0984,0,-4.1155,-4.1157,-4.1159,-4.1085,-4.1081,-4.1076,-4.1072,-4.1255,-4.1263,-4.1272,0,0,0,0,0,0,0,0,0,0,0,0,0,-4.0594,-4.0601,-4.0982,-4.0985,-4.0987,-4.1155,-4.1157,-4.1159,-4.1085,-4.108,-4.1075,-4.107,-4.1252,-4.1262,-4.1272,0,0,0,0,0,0,0,0,0,0,0,0,0,-4.0764,-4.0604,-4.0982,-4.097,-4.097,-4.1154,-4.1157,-4.116,-4.1087,-4.108,-4.1074,-4.1068,-4.1248,-4.1261,-4.1274,-4.1481,0,0,-4.1314,-4.132,0,0,0,0,0,0,0,0,-4.0755,-4.0779,-4.097,-4.0971,-4.0972,-4.1092,-4.1087,-4.1268,-4.1088,-4.1043,-4.1072,-4.1065,-4.1206,-4.1222,-4.1268,-4.149,-4.1498,-4.1315,-4.1323,-4.1329,-4.1333,0,0,0,0,0,0,0,-4.0743,-4.0771,-4.1051,-4.0972,-4.0974,-4.0957,-4.0975,-4.1121,-4.1158,-4.1046,-4.1041,-4.1062,-4.1205,-4.1256,-4.1272,-4.15,-4.1315,-4.1327,-4.1335,-4.134,-4.1903,-4.191,0,0,0,0,0,0,-4.073,-4.0761,-4.1045,-4.1056,-4.0845,-4.097,-4.0989,-4.106,-4.1156,-4.1164,-4.1068,-4.1058,-4.1237,-4.1257,-4.1278,-4.153,-4.1329,-4.1341,-4.1349,-4.1896,-4.1904,-4.1912,0,0,0,0,0,0,-4.0722,-4.0756,-4.1038,-4.0907,-4.0942,-4.0983,-4.1063,-4.1067,-4.1117,-4.1172,-4.1179,-4.1112,-4.1232,-4.126,-4.1432,-4.1535,-4.1347,-4.1359,-4.1888,-4.1899,-4.1908,-4.2033,0,0,0,0,0,0,-4.0711,-4.0754,-4.0832,-4.091,-4.0949,-4.1188,-4.107,-4.1074,-4.1139,-4.1129,-4.1216,-4.1224,-4.123,-4.1412,-4.1445,-4.1549,-4.1369,-4.1879,-4.1892,-4.1905,-4.202,-4.2046,-4.2069,0,0,0,0,0,-4.0698,-4.0861,-4.0836,-4.0871,-4.1048,-4.1194,-4.1216,-4.1218,-4.1148,-4.1228,-4.1263,-4.1221,-4.1517,-4.1431,-4.1466,-4.1577,-4.1872,-4.1889,-4.1904,-4.2008,-4.2041,-4.2068,0,0,0,0,0,0,-4.0796,-4.0871,-4.0845,-4.1037,-4.111,-4.1181,-4.1282,-4.1252,-4.1347,-4.1334,-4.1333,-4.1353,-4.1531,-4.157,-4.1472,-4.1783,-4.1684,-4.1708,-4.1752,-4.1783,-4.1807,-4.1795,-4.138,0,0,0,0,0,-4.084,-4.0951,-4.101,-4.1175,-4.1212,-4.1241,-4.1304,-4.1299,-4.1375,-4.1406,-4.1453,-4.153,-4.164,-4.1713,-4.1818,-4.2024,-4.2043,-4.2117,-4.2142,-4.2162,-4.2184,-4.2298,-4.2332,-4.1964,-4.1964,-4.1964,0,0,-4.0932,-4.0987,-4.1057,-4.1196,-4.1251,-4.1368,-4.1267,-4.1395,-4.1482,-4.1425,-4.1591,-4.1629,-4.1714,-4.1904,-4.1991,-4.1943,-4.2289,-4.2182,-4.2198,-4.2209,-4.2318,-4.2353,-4.2384,-4.1975,-4.1973,-4.1971,0,0,-4.1161,-4.1212,-4.1355,-4.1413,-4.1497,-4.1515,-4.1549,-4.1625,-4.1648,-4.1813,-4.1774,-4.1878,-4.2068,-4.2131,-4.2188,-4.244,-4.2406,-4.2474,-4.2604,-4.2716,-4.2745,-4.277,-4.2863,-4.2896,-4.2494,-4.2495,-4.2495,0,-4.1266,-4.1438,-4.1433,-4.1564,-4.1628,-4.1579,-4.1726,-4.1782,-4.1898,-4.1944,-4.1887,-4.2125,-4.2179,-4.2384,-4.2446,-4.2492,-4.2534,-4.2465,-4.274,-4.2766,-4.279,-4.2879,-4.2914,-4.2503,-4.2502,-4.2501,-4.25,0,-4.1564,-4.1685,-4.1791,-4.1902,-4.1977,-4.2115,-4.2133,-4.2209,-4.2197,-4.2222,-4.2392,-4.2454,-4.2572,-4.2619,-4.2609,-4.2825,-4.2793,-4.2739,-4.264,-4.2833,-4.2917,-4.2951,-4.2514,-4.2511,-4.2509,-4.2507,0,0,-4.1862,-4.1968,-4.2007,-4.2058,-4.2147,-4.2241,-4.2378,-4.249,-4.2558,-4.2638,-4.2755,-4.2916,-4.2867,-4.2931,-4.2928,-4.3025,-4.3225,-4.296,-4.2962,-4.3009,-4.3469,-4.3511,-4.355,-4.3201,-4.3207,-4.3212,-4.3463,0,-4.2099,-4.2337,-4.2337,-4.2558,-4.2671,-4.2626,-4.2745,-4.2814,-4.2841,-4.2941,-4.297,-4.3086,-4.3011,-4.305,-4.3144,-4.318,-4.3317,-4.3162,-4.3313,-4.3318,-4.3296,-4.3593,-4.3639,-4.3872,-4.3495,-4.35,-4.3504,0,-4.2409,-4.2499,-4.2731,-4.2804,-4.2852,-4.2959,-4.3063,-4.3159,-4.3237,-4.3249,-4.3321,-4.3303,-4.3444,-4.3338,-4.3535,-4.3429,-4.349,-4.3517,-4.3526,-4.3543,-4.3425,-4.3622,-4.3946,-4.3982,-4.3555,-4.3551,-4.3547,0,-4.2606,-4.2785,-4.2947,-4.2991,-4.3081,-4.3158,-4.3199,-4.327,-4.3339,-4.343,-4.3475,-4.3582,-4.3641,-4.3725,-4.3737,-4.3659,-4.3936,-4.383,-4.3953,-4.3953,-4.4016,-4.4012,-4.4358,-4.405,-4.4049,-4.4049,-4.4048,0,-4.2874,-4.3018,-4.3037,-4.3138,-4.3299,-4.3297,-4.3457,-4.3491,-4.3555,-4.3663,-4.3631,-4.3733,-4.374,-4.3846,-4.3856,-4.4019,-4.4045,-4.4061,-4.4063,-4.4067,-4.4065,-4.4109,-4.4095,-4.4058,-4.4056,-4.4054,-4.4053,0,-4.3123,-4.3141,-4.3316,-4.3386,-4.3407,-4.3523,-4.3583,-4.368,-4.3702,-4.3839,-4.3871,-4.3908,-4.403,-4.4049,-4.4194,-4.42,-4.4397,-4.438,-4.437,-4.4369,-4.4492,-4.4481,-4.488,-4.4934,-4.4588,-4.4591,-4.4594,0,-4.3294,-4.3404,-4.3485,-4.3554,-4.3599,-4.3711,-4.378,-4.3782,-4.3856,-4.3953,-4.4039,-4.4158,-4.4254,-4.4452,-4.4493,-4.4604,-4.4591,-4.4723,-4.4608,-4.4609,-4.4597,-4.4592,-4.4604,-4.4747,-4.4751,-4.4754,-4.4756,0,-4.3596,-4.36,-4.37,-4.3804,-4.3888,-4.397,-4.4048,-4.4107,-4.4119,-4.4204,-4.4328,-4.4402,-4.4549,-4.4669,-4.4779,-4.4823,-4.4794,-4.4791,-4.4826,-4.4833,-4.4824,-4.4834,-4.4435,-4.4783,-4.4781,-4.4779,-4.4777,-4.4776,-4.3814,-4.391,-4.3983,-4.4096,-4.4154,-4.4228,-4.4323,-4.4356,-4.4459,-4.4578,-4.4573,-4.4711,-4.4787,-4.4931,-4.4983,-4.5092,-4.5049,-4.5099,-4.5112,-4.5125,-4.5139,-4.4804,-4.5111,-4.5111,-4.511,-4.5109,-4.5109,0,-4.4118,-4.4162,-4.4266,-4.4375,-4.4465,-4.4425,-4.451,-4.4588,-4.4709,-4.4781,-4.4876,-4.502,-4.5135,-4.5184,-4.5299,-4.5377,-4.5367,-4.5407,-4.5404,-4.5415,-4.5169,-4.5129,-4.5414,-4.5414,-4.5414,-4.5414,-4.5414,-4.5414,-4.4286,-4.4448,-4.446,-4.4651,-4.4694,-4.4828,-4.488,-4.4948,-4.5006,-4.5168,-4.5263,-4.5293,-4.5358,-4.5476,-4.5582,-4.5593,-4.5639,-4.5686,-4.5693,-4.5463,-4.5432,-4.5403,-4.5365,-4.5695,-4.5696,-4.593,-4.5932,-4.5934]},{"header":{"parameterUnit":"m.s-1","parameterCategory":1,"la1":30.2991,"la2":30.254,"lo1":-89.0895,"lo2":-89.0444,"dy":0.0017,"dx":0.0017,"nx":28,"ny":28,"refTime":"2023-11-15T09:00:00:Z","depth":0,"parameterNumber":3,"parameterNumberName":"V-component_of_WINDS"},"data":[0,0,0,0,0,0,0,0,0,0,0,0,0,0,0,0,0,0,0,0,0,0,0,0,0,0,0,0,0,0,0,0,0,0,0,0,0,0,0,0,0,0,0,0,0,0,0,0,0,0,0,0,0,0,0,0,0,0,-4.2161,-4.2161,0,-4.2092,-4.2091,-4.209,-4.1996,-4.1995,-4.1993,-4.1992,-4.1921,-4.192,-4.192,0,0,0,0,0,0,0,0,0,0,0,0,0,-4.2214,-4.2213,-4.2161,-4.2161,-4.216,-4.2092,-4.2091,-4.209,-4.1997,-4.1995,-4.1993,-4.1991,-4.1921,-4.192,-4.192,0,0,0,0,0,0,0,0,0,0,0,0,0,-4.2172,-4.2213,-4.2162,-4.2105,-4.2099,-4.2092,-4.2091,-4.2089,-4.1997,-4.1995,-4.1992,-4.199,-4.1921,-4.192,-4.192,-4.1962,0,0,-4.1918,-4.1917,0,0,0,0,0,0,0,0,-4.2175,-4.217,-4.2114,-4.2109,-4.2102,-4.205,-4.2083,-4.2047,-4.1998,-4.2036,-4.1992,-4.1989,-4.1966,-4.1961,-4.1953,-4.1959,-4.1956,-4.1918,-4.1917,-4.1917,-4.1917,0,0,0,0,0,0,0,-4.2178,-4.2173,-4.2134,-4.2114,-4.2106,-4.2083,-4.2075,-4.2076,-4.2015,-4.2032,-4.2025,-4.2018,-4.1962,-4.1954,-4.1951,-4.1955,-4.1918,-4.1917,-4.1917,-4.1916,-4.199,-4.1992,0,0,0,0,0,0,-4.2189,-4.2176,-4.2136,-4.2132,-4.2134,-4.2084,-4.2074,-4.2069,-4.2014,-4.2004,-4.2021,-4.2014,-4.1956,-4.1952,-4.1948,-4.1993,-4.1917,-4.1916,-4.1916,-4.1987,-4.199,-4.1993,0,0,0,0,0,0,-4.2191,-4.2186,-4.2139,-4.2152,-4.2144,-4.2086,-4.2081,-4.2069,-4.2061,-4.2005,-4.1994,-4.2024,-4.1954,-4.1949,-4.1959,-4.1989,-4.1916,-4.1915,-4.1985,-4.1988,-4.1992,-4.2084,0,0,0,0,0,0,-4.2192,-4.2187,-4.2203,-4.2153,-4.2144,-4.2151,-4.2082,-4.207,-4.206,-4.2052,-4.2005,-4.1996,-4.1952,-4.196,-4.1958,-4.1987,-4.1915,-4.1982,-4.1986,-4.199,-4.2078,-4.209,-4.2101,0,0,0,0,0,-4.2195,-4.2232,-4.2205,-4.22,-4.2162,-4.2153,-4.2148,-4.2097,-4.2063,-4.2078,-4.2042,-4.1997,-4.1986,-4.1962,-4.1959,-4.1988,-4.198,-4.1985,-4.199,-4.2073,-4.2088,-4.21,0,0,0,0,0,0,-4.2288,-4.2225,-4.2193,-4.2216,-4.2191,-4.2138,-4.2155,-4.2115,-4.2099,-4.2092,-4.2029,-4.202,-4.2037,-4.2013,-4.1988,-4.2025,-4.1976,-4.1981,-4.204,-4.2054,-4.2065,-4.207,-4.1914,0,0,0,0,0,-4.2311,-4.231,-4.2254,-4.228,-4.2268,-4.2214,-4.2209,-4.2172,-4.2143,-4.2132,-4.2097,-4.2071,-4.2061,-4.2056,-4.2044,-4.2074,-4.2062,-4.2092,-4.2104,-4.2113,-4.2118,-4.213,-4.2143,-4.201,-4.201,-4.201,0,0,-4.2359,-4.2325,-4.2327,-4.2297,-4.2274,-4.2273,-4.2206,-4.2208,-4.2207,-4.2132,-4.2139,-4.2112,-4.2079,-4.2099,-4.2106,-4.2079,-4.2152,-4.212,-4.2128,-4.2127,-4.2137,-4.215,-4.2161,-4.2014,-4.2013,-4.2013,0,0,-4.2446,-4.242,-4.2438,-4.2415,-4.2379,-4.2343,-4.2347,-4.23,-4.2279,-4.2285,-4.2229,-4.2226,-4.2212,-4.2189,-4.2177,-4.2254,-4.2211,-4.2252,-4.2311,-4.2324,-4.2335,-4.2343,-4.237,-4.238,-4.2257,-4.2257,-4.2258,0,-4.251,-4.2507,-4.2452,-4.2457,-4.2445,-4.2377,-4.2394,-4.2375,-4.2338,-4.2331,-4.2302,-4.2281,-4.2254,-4.2267,-4.2286,-4.2278,-4.228,-4.2257,-4.2338,-4.2346,-4.2353,-4.2378,-4.2388,-4.2263,-4.2262,-4.2261,-4.2261,0,-4.2587,-4.2585,-4.2604,-4.2569,-4.2559,-4.257,-4.2517,-4.2513,-4.2477,-4.2444,-4.245,-4.2415,-4.2394,-4.2394,-4.236,-4.2402,-4.2387,-4.2349,-4.2298,-4.2372,-4.2394,-4.2403,-4.227,-4.2268,-4.2266,-4.2265,0,0,-4.2731,-4.2665,-4.2672,-4.2655,-4.261,-4.2608,-4.2616,-4.2595,-4.2593,-4.257,-4.2574,-4.2563,-4.2527,-4.2512,-4.2474,-4.2485,-4.2547,-4.2445,-4.2444,-4.2465,-4.259,-4.2619,-4.2631,-4.2519,-4.2521,-4.2522,-4.2593,0,-4.2808,-4.2817,-4.2768,-4.279,-4.2787,-4.2723,-4.2729,-4.2703,-4.2671,-4.2664,-4.2629,-4.2622,-4.2576,-4.2566,-4.2575,-4.2538,-4.2572,-4.2532,-4.2522,-4.2522,-4.2531,-4.2642,-4.2672,-4.2741,-4.2601,-4.2603,-4.2604,0,-4.29,-4.2881,-4.2903,-4.2856,-4.2853,-4.286,-4.2836,-4.283,-4.2798,-4.2775,-4.2758,-4.2714,-4.2717,-4.267,-4.2673,-4.2647,-4.264,-4.2621,-4.2623,-4.2619,-4.2567,-4.2641,-4.2762,-4.2772,-4.2617,-4.2616,-4.2615,0,-4.3001,-4.2981,-4.2991,-4.2978,-4.2925,-4.2931,-4.2908,-4.2874,-4.2864,-4.2844,-4.2837,-4.2818,-4.2807,-4.2792,-4.2744,-4.2714,-4.2752,-4.2701,-4.2732,-4.2733,-4.2742,-4.2742,-4.2863,-4.274,-4.274,-4.2739,-4.2739,0,-4.3092,-4.3108,-4.3036,-4.3042,-4.3057,-4.3,-4.3017,-4.2988,-4.2958,-4.2957,-4.29,-4.29,-4.2836,-4.2829,-4.2791,-4.2799,-4.2795,-4.2775,-4.2765,-4.278,-4.2782,-4.2774,-4.2767,-4.2742,-4.2741,-4.2741,-4.274,0,-4.3208,-4.316,-4.3167,-4.3115,-4.3102,-4.3116,-4.3071,-4.3074,-4.3039,-4.3039,-4.3035,-4.298,-4.2969,-4.2919,-4.2896,-4.287,-4.289,-4.287,-4.2901,-4.2894,-4.2928,-4.2925,-4.3046,-4.3059,-4.2929,-4.293,-4.2931,0,-4.3269,-4.3279,-4.3228,-4.3223,-4.3204,-4.3197,-4.3187,-4.313,-4.3122,-4.3086,-4.3093,-4.3077,-4.3061,-4.3046,-4.3003,-4.2985,-4.2964,-4.3007,-4.296,-4.2975,-4.2963,-4.2962,-4.2963,-4.3018,-4.3019,-4.3021,-4.3022,0,-4.3381,-4.3357,-4.3345,-4.3324,-4.3313,-4.3294,-4.3271,-4.3271,-4.3208,-4.3201,-4.3189,-4.3177,-4.3152,-4.3137,-4.3111,-4.3087,-4.3044,-4.3037,-4.3043,-4.3058,-4.3075,-4.3065,-4.2927,-4.3034,-4.3033,-4.3032,-4.3031,-4.3031,-4.347,-4.3476,-4.3441,-4.3429,-4.3406,-4.3386,-4.3386,-4.3351,-4.3339,-4.3315,-4.3283,-4.3274,-4.324,-4.3201,-4.3181,-4.3173,-4.3149,-4.3158,-4.316,-4.3163,-4.317,-4.3077,-4.3168,-4.3168,-4.3168,-4.3167,-4.3167,0,-4.3579,-4.3553,-4.3543,-4.3513,-4.3503,-4.3463,-4.3436,-4.343,-4.3423,-4.3395,-4.3381,-4.3366,-4.335,-4.3306,-4.3286,-4.3288,-4.3267,-4.3284,-4.3283,-4.3278,-4.3193,-4.319,-4.3301,-4.3301,-4.3301,-4.3301,-4.3301,-4.3301,-4.3635,-4.3642,-4.3614,-4.3609,-4.3582,-4.3573,-4.3561,-4.3542,-4.3519,-4.3505,-4.3492,-4.3463,-4.3429,-4.3405,-4.3389,-4.3376,-4.3371,-4.3394,-4.3375,-4.3297,-4.3284,-4.3272,-4.3268,-4.3394,-4.3394,-4.346,-4.3461,-4.3461]}]]